This is the latest recevied weather packets stored in our database for station/object KM7BEO. If no packets are shown the sender has not sent any weather packets the latest 10 day(s).
| Time | Temp. | Humidity | Pressure | Rain* | Wind** | Luminosity | Snow |
|---|---|---|---|---|---|---|---|
| 1777814099 | 10.56° C | 85% | 1014 hPa | 0 mm | - | 13 W/m² | - |
| 1777813795 | 10.56° C | 84% | 1014 hPa | 0 mm | - | 10 W/m² | - |
| 1777813493 | 11.11° C | 82% | 1013.8 hPa | 0 mm | - | 8 W/m² | - |
| 1777813190 | 11.67° C | 82% | 1013.9 hPa | 0 mm | - | 6 W/m² | - |
| 1777812888 | 11.67° C | 80% | 1013.7 hPa | 0 mm | - | 4 W/m² | - |
| 1777812584 | 11.67° C | 79% | 1013.7 hPa | 0 mm | - | 3 W/m² | - |
| 1777812282 | 11.67° C | 79% | 1013.8 hPa | 0 mm | - | 2 W/m² | - |
| 1777811980 | 11.67° C | 79% | 1014 hPa | 0 mm | - | 1 W/m² | - |
| 1777811679 | 12.22° C | 79% | 1013.9 hPa | 0 mm | - | 0 W/m² | - |
| 1777811374 | 11.67° C | 79% | 1013.9 hPa | 0 mm | - | 0 W/m² | - |
| 1777811071 | 12.22° C | 78% | 1014 hPa | 0 mm | - | 0 W/m² | - |
| 1777810768 | 11.67° C | 79% | 1014 hPa | 0 mm | - | 0 W/m² | - |
| 1777810465 | 11.67° C | 79% | 1013.9 hPa | 0 mm | - | 0 W/m² | - |
| 1777810161 | 11.67° C | 79% | 1014 hPa | 0 mm | - | 0 W/m² | - |
| 1777809858 | 11.67° C | 80% | 1014 hPa | 0 mm | - | 0 W/m² | - |
| 1777809557 | 11.67° C | 80% | 1014 hPa | 0 mm | - | 0 W/m² | - |
| 1777809254 | 11.67° C | 79% | 1014 hPa | 0 mm | - | 0 W/m² | - |
| 1777808952 | 11.67° C | 79% | 1014 hPa | 0 mm | - | 0 W/m² | - |
| 1777808649 | 11.67° C | 79% | 1013.9 hPa | 0 mm | - | 0 W/m² | - |
| 1777808345 | 11.67° C | 79% | 1014.1 hPa | 0 mm | - | 0 W/m² | - |
| 1777808044 | 11.11° C | 78% | 1014 hPa | 0 mm | - | 0 W/m² | - |
| 1777807740 | 11.11° C | 79% | 1014.2 hPa | 0 mm | - | 0 W/m² | - |
| 1777807439 | 11.11° C | 79% | 1014 hPa | 0 mm | - | 0 W/m² | - |
| 1777807139 | 11.11° C | 79% | 1013.9 hPa | 0 mm | - | 0 W/m² | - |
| 1777806837 | 11.11° C | 78% | 1014 hPa | 0 mm | - | 0 W/m² | - |
* Rain latest hour (hover to see other rain measurements)
** Current wind speed in m/s (hover to see current wind gust speed)